Savannah, GA

4:19 PM EDT on May 28, 2017 (GMT -0400)
Savannah International

Weather History for KSAV - April, 2014

Change the Weather History Date:

Saturday, April 26, 2014

  Actual Average Record
Temperature  
Mean Temperature 71 °F 68 °F  
Max Temperature 82 °F 80 °F 92 °F (1989)
Min Temperature 59 °F 56 °F 38 °F (1910)
Degree Days  
Heating Degree Days 0 1  
Month to date heating degree days 37 72  
Since 1 July heating degree days 1682 1799  
Cooling Degree Days 6 4  
Month to date cooling degree days 88 75  
Year to date cooling degree days 118 117  
Growing Degree Days 20 (Base 50)    
Moisture  
Dew Point 55 °F    
Average Humidity 62    
Maximum Humidity 90    
Minimum Humidity 34    
Precipitation  
Precipitation 0.00 in 0.09 in 2.28 in (1973)
Month to date precipitation 5.46 2.72  
Year to date precipitation 12.22 12.93  
Sea Level Pressure  
Sea Level Pressure 29.99 in    
Wind  
Wind Speed 6 mph (SE)    
Max Wind Speed 18 mph    
Max Gust Speed 22 mph    
Visibility 10 miles    
Events      
T = Trace of Precipitation, MM = Missing Value Source: NWS Daily Summary

Daily Weather History Graph

Daily Weather History Graph

Search for Another Location

Airport or City:

Trip Planner

Search our weather history database for the weather conditions in past years. The results will help you decide how hot, cold, wet, or windy it might be!

Date:

Astronomy

Apr. 26, 2014 Rise Set
Actual Time 6:43 AM EDT 8:01 PM EDT
Civil Twilight 6:17 AM EDT 8:27 PM EDT
Nautical Twilight 5:47 AM EDT 8:58 PM EDT
Astronomical Twilight 5:15 AM EDT 9:30 PM EDT
Moon 4:56 AM EDT (4/26) 5:37 PM EDT (4/26)
Length of Visible Light 14h 09m
Length of Day
13h 18m
Waning Crescent, 8% of the Moon is Illuminated
Apr 26
Waning Crescent
Apr 29
New
May 6
First Quarter
May 14
Full
May 21
Last Quarter

Hourly Weather History & Observations

Time (EDT) Temp. Heat Index Dew Point Humidity Pressure Visibility Wind Dir Wind Speed Gust Speed Precip Events Conditions
12:53 AM 66.9 °F - 62.1 °F 84% 29.92 in 9.0 mi West 3.5 mph - N/A   Clear
1:53 AM 64.9 °F - 61.0 °F 87% 29.92 in 8.0 mi West 5.8 mph - N/A   Clear
2:53 AM 64.0 °F - 60.1 °F 87% 29.90 in 8.0 mi West 3.5 mph - N/A   Clear
3:53 AM 62.1 °F - 59.0 °F 90% 29.91 in 9.0 mi Calm Calm - N/A   Clear
4:53 AM 61.0 °F - 57.0 °F 87% 29.93 in 8.0 mi West 3.5 mph - N/A   Clear
5:53 AM 59.0 °F - 55.9 °F 90% 29.94 in 10.0 mi Calm Calm - N/A   Clear
6:53 AM 60.1 °F - 55.9 °F 86% 29.97 in 10.0 mi NNW 3.5 mph - N/A   Clear
7:53 AM 63.0 °F - 57.0 °F 81% 30.01 in 10.0 mi NW 3.5 mph - N/A   Clear
8:53 AM 68.0 °F - 55.9 °F 65% 30.02 in 10.0 mi North 8.1 mph - N/A   Clear
9:53 AM 73.0 °F - 53.1 °F 49% 30.03 in 10.0 mi NE 8.1 mph - N/A   Clear
10:53 AM 75.9 °F - 54.0 °F 46% 30.04 in 10.0 mi ENE 5.8 mph - N/A   Clear
11:53 AM 79.0 °F - 53.1 °F 40% 30.04 in 10.0 mi Variable 3.5 mph - N/A   Clear
12:53 PM 80.1 °F 79.9 °F 53.1 °F 39% 30.04 in 10.0 mi SE 9.2 mph - N/A   Clear
1:53 PM 81.0 °F - 52.0 °F 36% 30.02 in 10.0 mi South 5.8 mph - N/A   Partly Cloudy
2:53 PM 82.0 °F - 52.0 °F 35% 30.01 in 10.0 mi ESE 11.5 mph - N/A   Partly Cloudy
3:53 PM 79.0 °F - 51.1 °F 38% 30.01 in 10.0 mi East 16.1 mph - N/A   Scattered Clouds
4:53 PM 78.1 °F - 52.0 °F 40% 30.00 in 10.0 mi ESE 10.4 mph - N/A   Partly Cloudy
5:53 PM 77.0 °F - 52.0 °F 42% 30.00 in 10.0 mi East 12.7 mph - N/A   Partly Cloudy
6:53 PM 75.0 °F - 51.1 °F 43% 30.00 in 10.0 mi ESE 10.4 mph - N/A   Clear
7:53 PM 71.1 °F - 52.0 °F 51% 30.00 in 10.0 mi SE 8.1 mph - N/A   Partly Cloudy
8:53 PM 66.9 °F - 55.0 °F 66% 30.01 in 10.0 mi South 5.8 mph - N/A   Scattered Clouds
9:53 PM 66.9 °F - 57.9 °F 73% 30.03 in 10.0 mi Calm Calm - N/A   Partly Cloudy
10:53 PM 62.1 °F - 55.9 °F 80% 30.03 in 10.0 mi Calm Calm - N/A   Partly Cloudy
11:53 PM 61.0 °F - 57.0 °F 87% 30.03 in 10.0 mi WSW 3.5 mph - N/A   Partly Cloudy